Regional Weather Roundup
Issued by NWS

Home | Current Version | Previous Version | Text Only | Print | Product List | Glossary Off
Versions: 1 2 3 4 5 6 7 8 9 10 11 12 13 14 15 16 17 18 19 20 21 22 23 24 25 26 27 28 29 30 31 32 33 34 35 36 37 38 39 40 41 42 43 44 45 46 47 48 49 50

000
ASUS44 KMEG 300300
RWRTN
TENNESSEE HOURLY STATE WEATHER ROUNDUP
NATIONAL WEATHER SERVICE MEMPHIS TN
900 PM CST THU JAN 29 2015

TNZ002-004-019-021-049-052-054-088>092-300400-
WEST TENNESSEE

CITY           SKY/WX    TMP DP  RH WIND       PRES   REMARKS
MEMPHIS INTL   CLOUDY    46  30  53 N13G24    30.38R
NWS MEMPHIS      N/A     44 N/A N/A MISG        N/A
JACKSON        CLOUDY    43  29  57 NW16      30.36R
DYERSBURG      CLOUDY    43  21  42 NW8       30.40R
UNION CITY     CLOUDY    39  30  70 NW8       30.35R WCI  34
PARIS          CLOUDY    39  28  65 N8        30.34R WCI  34
LEXINGTON      CLOUDY    41  28  60 N9        30.32R
$$

TNZ008-025-027-028-033-062-065-066-300400-
NORTH MIDDLE TENNESSEE

CITY           SKY/WX    TMP DP  RH WIND       PRES   REMARKS
NASHVILLE      CLOUDY    41  31  67 N13G22    30.30R
CLARKSVILLE    CLOUDY    40  34  79 NW9       30.32R WCI  34
COOKEVILLE     CLOUDY    39  34  81 N9        30.23R WCI  33
CROSSVILLE     CLOUDY    36  32  85 NW14      30.19R FOG     WCI  27
$$

TNZ061-075-076-078-094-096-097-300400-
SOUTH MIDDLE TENNESSEE

CITY           SKY/WX    TMP DP  RH WIND       PRES   REMARKS
FAYETTEVILLE   CLOUDY    41  32  70 MISG      30.25R
TULLAHOMA      CLOUDY    39  30  70 N15       30.26R WCI  31
WINCHESTER     CLOUDY    39  34  81 N10       30.26R WCI  32
COLUMBIA       CLOUDY    43  34  70 N8        30.29R
SHELBYVILLE    CLOUDY    41  34  75 N14       30.29R
$$

TNZ017-018-042-046-047-300400-
NORTHEAST TENNESSEE

CITY           SKY/WX    TMP DP  RH WIND       PRES   REMARKS
TRI CITIES     CLOUDY    49  36  61 W9        30.01F
ELIZABETHTON   CLOUDY    46  34  61 SW3       30.01S
$$

TNZ012-013-036-069-073-074-300400-
CENTRAL EAST TENNESSEE

CITY           SKY/WX    TMP DP  RH WIND       PRES   REMARKS
KNOXVILLE      CLOUDY    49  39  68 W20G25    30.09R
OAK RIDGE      LGT RAIN  48  38  68 NW9G16    30.14R
$$

TNZ083-085-099-300400-
SOUTHEAST TENNESSEE

CITY           SKY/WX    TMP DP  RH WIND       PRES   REMARKS
CHATTANOOGA    MOCLDY    50  38  63 N14       30.16R
$$

SKY/WX REPORTED AS FAIR MEANS FEW OR NO CLOUDS BELOW
12 THOUSAND FEET.




USA.gov is the U.S. government's official web portal to all federal, state and local government web resources and services.